[Date Prev][Date Next][Thread Prev][Thread Next] - [Date Index][Thread Index][Author Index]

ISS NEW KEPS - DAY 223



ISS (ZARYA)             
1 25544U 98067A   07223.35849883  .00011087  00000-0  73100-4 0  7587
2 25544  51.6321 178.9770 0008180 229.2731 233.7090 15.76204860499489

----
Sent via sarex@amsat.org. Opinions expressed are those of the author.
Not an AMSAT member? Join now to support the amateur satellite program!
Subscription settings: http://amsat.org/mailman/listinfo/sarex



AMSAT Top AMSAT Home